Regional Weather Roundup
Issued by NWS

Home | Current Version | Previous Version | Text Only | Print | Product List | Glossary Off
Versions: 1 2 3 4 5 6 7 8 9 10 11 12 13 14 15 16 17 18 19 20 21 22 23 24 25 26 27 28 29 30 31 32 33 34 35 36 37 38 39 40 41 42 43 44 45 46 47 48 49 50

000
ASUS45 KBOI 240310
RWRID

IDAHO REGIONAL WEATHER ROUNDUP
NATIONAL WEATHER SERVICE BOISE ID
900 PM MDT TUE MAY 23 2017

NOTE: "FAIR" INDICATES FEW OR NO CLOUDS BELOW 12000 FEET
WITH NO SIGNIFICANT WEATHER AND/OR OBSTRUCTIONS TO VISIBILITY

IDZ012-014-240400-
SOUTHWEST IDAHO


CITY           SKY/WX    TMP DP  RH WIND       PRES   REMARKS
BOISE          CLEAR     81  39  22 SE8       29.87F
CALDWELL       CLEAR     76  47  35 E7        29.83F
MOUNTAIN HOME  CLEAR     78  43  28 NE7       29.89F
$$

IDZ016-017-240400-
SOUTHCENTRAL IDAHO


CITY           SKY/WX    TMP DP  RH WIND       PRES   REMARKS
BURLEY         CLEAR     71  39  31 W6        29.96F
JEROME         CLEAR     72  39  30 SW3       29.97F
TWIN FALLS     CLEAR     67  44  43 W5        29.98F
$$

IDZ019>023-240400-
SOUTHEAST IDAHO


CITY           SKY/WX    TMP DP  RH WIND       PRES   REMARKS
IDAHO FALLS    CLEAR     70  34  26 S14       29.99F
POCATELLO      CLEAR     65  42  43 S10       29.99F
REXBURG        CLEAR     66  41  40 S8        29.98F
$$

IDZ006-010-011-018-031-032-240400-
CENTRAL IDAHO MOUNTAINS


CITY           SKY/WX    TMP DP  RH WIND       PRES   REMARKS
MCCALL         CLEAR     68  43  40 SE5       29.97F
HAILEY         CLEAR     70  39  32 SW12      30.03F
STANLEY          N/A     59  38  45 CALM      30.10F
SALMON         CLEAR     70  46  43 SW3       29.83F
CHALLIS        CLEAR     70  34  26 W10       29.97S
$$

IDZ002-004-006-007-026-240400-
NORTHERN IDAHO


CITY           SKY/WX    TMP DP  RH WIND       PRES   REMARKS
LEWISTON       PTCLDY    79  55  43 S6        29.71F
LOWELL           N/A     67  55  65 CALM      29.73F
COEUR D`ALENE  CLEAR     75  49  39 S12       29.71F
MULLAN PASS    CLEAR     57  33  40 SW8       29.91F
$$



USA.gov is the U.S. government's official web portal to all federal, state and local government web resources and services.